Time,TemperatureF,DewpointF,PressureIn,WindDirection,WindDirectionDegrees,WindSpeedMPH,WindSpeedGustMPH,Humidity,HourlyPrecipIn,Conditions,Clouds,dailyrainin,SoftwareType,DateUTC
2013-02-01 00:02:00,-8.0,-14.0,30.35,WNW,290,10.0,14.0,75,0.00,,,0.00,,2013-02-01 06:02:00,
2013-02-01 00:11:00,-8.0,-14.0,30.35,WNW,290,10.0,14.0,75,0.00,,,0.00,,2013-02-01 06:11:00,
2013-02-01 00:22:00,-8.0,-14.0,30.35,WNW,290,10.0,14.0,75,0.00,,,0.00,,2013-02-01 06:22:00,
2013-02-01 00:32:00,-8.0,-14.0,30.35,WNW,290,12.0,18.0,76,0.00,,,0.00,,2013-02-01 06:32:00,
2013-02-01 00:42:00,-8.0,-14.0,30.35,WNW,290,12.0,18.0,76,0.00,,,0.00,,2013-02-01 06:42:00,
2013-02-01 00:52:00,-8.0,-14.0,30.36,NW,304,9.0,17.0,76,0.00,,,0.00,,2013-02-01 06:52:00,
2013-02-01 01:02:00,-8.0,-14.0,30.36,West,280,10.0,21.0,76,0.00,,,0.00,,2013-02-01 07:02:00,
2013-02-01 01:12:00,-8.0,-14.0,30.36,West,280,10.0,21.0,76,0.00,,,0.00,,2013-02-01 07:12:00,
2013-02-01 01:22:00,-9.0,-14.0,30.37,WNW,301,9.0,18.0,76,0.00,,,0.00,,2013-02-01 07:22:00,
2013-02-01 01:32:00,-9.0,-14.0,30.37,WNW,301,9.0,18.0,76,0.00,,,0.00,,2013-02-01 07:32:00,
2013-02-01 01:42:00,-9.0,-14.0,30.37,WNW,301,9.0,18.0,76,0.00,,,0.00,,2013-02-01 07:42:00,
2013-02-01 01:52:00,-9.0,-14.0,30.36,NW,308,10.0,18.0,76,0.00,,,0.00,,2013-02-01 07:52:00,
2013-02-01 02:01:00,-9.0,-14.0,30.36,WNW,291,10.0,16.0,76,0.00,,,0.00,,2013-02-01 08:01:00,
2013-02-01 02:11:00,-9.0,-14.0,30.36,WNW,291,10.0,16.0,76,0.00,,,0.00,,2013-02-01 08:11:00,
2013-02-01 02:21:00,-9.0,-14.0,30.37,WNW,289,8.0,13.0,76,0.00,,,0.00,,2013-02-01 08:21:00,
2013-02-01 02:32:00,-9.0,-15.0,30.37,WNW,285,7.0,12.0,75,0.00,,,0.00,,2013-02-01 08:32:00,
2013-02-01 02:42:00,-9.0,-15.0,30.37,WNW,285,7.0,12.0,75,0.00,,,0.00,,2013-02-01 08:42:00,
2013-02-01 02:52:00,-9.0,-15.0,30.37,WNW,285,7.0,12.0,75,0.00,,,0.00,,2013-02-01 08:52:00,
2013-02-01 03:01:00,-10.0,-15.0,30.37,WNW,297,8.0,12.0,76,0.00,,,0.00,,2013-02-01 09:01:00,
2013-02-01 03:11:00,-10.0,-15.0,30.37,WNW,297,8.0,12.0,76,0.00,,,0.00,,2013-02-01 09:11:00,
2013-02-01 03:21:00,-10.0,-15.0,30.37,WNW,293,6.0,10.0,76,0.00,,,0.00,,2013-02-01 09:21:00,
2013-02-01 03:32:00,-10.0,-15.0,30.37,WNW,297,5.0,9.0,76,0.00,,,0.00,,2013-02-01 09:32:00,
2013-02-01 03:41:00,-10.0,-15.0,30.37,WNW,297,5.0,9.0,76,0.00,,,0.00,,2013-02-01 09:41:00,
2013-02-01 03:51:00,-10.0,-15.0,30.37,West,280,6.0,8.0,77,0.00,,,0.00,,2013-02-01 09:51:00,
2013-02-01 04:01:00,-11.0,-16.0,30.38,West,269,4.0,9.0,77,0.00,,,0.00,,2013-02-01 10:01:00,
2013-02-01 04:11:00,-11.0,-16.0,30.38,West,269,4.0,9.0,77,0.00,,,0.00,,2013-02-01 10:11:00,
2013-02-01 04:21:00,-11.0,-16.0,30.38,West,269,4.0,9.0,77,0.00,,,0.00,,2013-02-01 10:21:00,
2013-02-01 04:31:00,-11.0,-16.0,30.38,West,276,8.0,11.0,78,0.00,,,0.00,,2013-02-01 10:31:00,
2013-02-01 04:42:00,-11.0,-16.0,30.38,West,276,8.0,11.0,78,0.00,,,0.00,,2013-02-01 10:42:00,
2013-02-01 04:52:00,-11.0,-16.0,30.39,West,276,9.0,12.0,78,0.00,,,0.00,,2013-02-01 10:52:00,
2013-02-01 05:02:00,-11.0,-16.0,30.39,WNW,285,10.0,13.0,79,0.00,,,0.00,,2013-02-01 11:02:00,
2013-02-01 05:11:00,-11.0,-16.0,30.39,WNW,285,10.0,13.0,79,0.00,,,0.00,,2013-02-01 11:11:00,
2013-02-01 05:22:00,-11.0,-16.0,30.39,WNW,290,9.0,12.0,79,0.00,,,0.00,,2013-02-01 11:22:00,
2013-02-01 05:32:00,-11.0,-16.0,30.39,WNW,290,9.0,12.0,79,0.00,,,0.00,,2013-02-01 11:32:00,
2013-02-01 05:42:00,-11.0,-16.0,30.39,WNW,290,9.0,12.0,79,0.00,,,0.00,,2013-02-01 11:42:00,
2013-02-01 05:53:00,-11.0,-16.0,30.39,West,271,9.0,13.0,79,0.00,,,0.00,,2013-02-01 11:53:00,
2013-02-01 06:02:00,-11.0,-16.0,30.39,West,278,9.0,13.0,79,0.00,,,0.00,,2013-02-01 12:02:00,
2013-02-01 06:12:00,-11.0,-16.0,30.39,West,278,9.0,13.0,79,0.00,,,0.00,,2013-02-01 12:12:00,
2013-02-01 06:22:00,-12.0,-17.0,30.39,West,281,8.0,11.0,79,0.00,,,0.00,,2013-02-01 12:22:00,
2013-02-01 06:32:00,-12.0,-17.0,30.39,WNW,284,5.0,10.0,79,0.00,,,0.00,,2013-02-01 12:32:00,
2013-02-01 06:42:00,-12.0,-17.0,30.39,WNW,284,5.0,10.0,79,0.00,,,0.00,,2013-02-01 12:42:00,
2013-02-01 06:52:00,-12.0,-17.0,30.39,WNW,284,5.0,10.0,79,0.00,,,0.00,,2013-02-01 12:52:00,
2013-02-01 07:02:00,-12.0,-16.0,30.39,West,277,5.0,7.0,80,0.00,,,0.00,,2013-02-01 13:02:00,
2013-02-01 07:11:00,-12.0,-16.0,30.39,West,277,5.0,7.0,80,0.00,,,0.00,,2013-02-01 13:11:00,
2013-02-01 07:22:00,-12.0,-16.0,30.39,West,278,4.0,6.0,80,0.00,,,0.00,,2013-02-01 13:22:00,
2013-02-01 07:32:00,-12.0,-16.0,30.39,WSW,257,3.0,7.0,80,0.00,,,0.00,,2013-02-01 13:32:00,
2013-02-01 07:42:00,-12.0,-16.0,30.39,WSW,257,3.0,7.0,80,0.00,,,0.00,,2013-02-01 13:42:00,
2013-02-01 07:52:00,-12.0,-16.0,30.38,West,266,2.0,4.0,80,0.00,,,0.00,,2013-02-01 13:52:00,
2013-02-01 08:03:00,-12.0,-16.0,30.38,West,266,2.0,4.0,80,0.00,,,0.00,,2013-02-01 14:03:00,
2013-02-01 08:11:00,-12.0,-16.0,30.38,West,266,2.0,4.0,80,0.00,,,0.00,,2013-02-01 14:11:00,
2013-02-01 08:21:00,-12.0,-16.0,30.37,WNW,284,1.0,3.0,80,0.00,,,0.00,,2013-02-01 14:21:00,
2013-02-01 08:32:00,-11.0,-16.0,30.38,West,271,3.0,4.0,79,0.00,,,0.00,,2013-02-01 14:32:00,
2013-02-01 08:42:00,-11.0,-16.0,30.38,West,271,3.0,4.0,79,0.00,,,0.00,,2013-02-01 14:42:00,
2013-02-01 08:52:00,-11.0,-16.0,30.38,WSW,248,5.0,9.0,78,0.00,,,0.00,,2013-02-01 14:52:00,
2013-02-01 09:02:00,-10.0,-15.0,30.37,WSW,257,5.0,8.0,77,0.00,,,0.00,,2013-02-01 15:02:00,
2013-02-01 09:12:00,-10.0,-15.0,30.37,WSW,252,5.0,8.0,76,0.00,,,0.00,,2013-02-01 15:12:00,
2013-02-01 09:22:00,-10.0,-15.0,30.37,WSW,252,5.0,8.0,76,0.00,,,0.00,,2013-02-01 15:22:00,
2013-02-01 09:33:00,-10.0,-15.0,30.37,WSW,252,5.0,8.0,76,0.00,,,0.00,,2013-02-01 15:33:00,
2013-02-01 09:42:00,-10.0,-15.0,30.37,WSW,252,5.0,8.0,76,0.00,,,0.00,,2013-02-01 15:42:00,
2013-02-01 09:52:00,-10.0,-15.0,30.37,WSW,252,5.0,8.0,76,0.00,,,0.00,,2013-02-01 15:52:00,
2013-02-01 10:03:00,-9.0,-15.0,30.36,West,274,2.0,6.0,74,0.00,,,0.00,,2013-02-01 16:03:00,
2013-02-01 10:11:00,-8.0,-14.0,30.35,SW,236,2.0,7.0,74,0.00,,,0.00,,2013-02-01 16:11:00,
2013-02-01 10:22:00,-8.0,-14.0,30.35,SW,236,2.0,7.0,74,0.00,,,0.00,,2013-02-01 16:22:00,
2013-02-01 10:33:00,-8.0,-15.0,30.35,SW,232,2.0,7.0,71,0.00,,,0.00,,2013-02-01 16:33:00,
2013-02-01 10:42:00,-8.0,-15.0,30.35,SW,232,2.0,7.0,71,0.00,,,0.00,,2013-02-01 16:42:00,
2013-02-01 10:52:00,-8.0,-15.0,30.35,SW,232,2.0,7.0,71,0.00,,,0.00,,2013-02-01 16:52:00,
2013-02-01 11:02:00,-7.0,-14.0,30.35,WSW,242,6.0,9.0,71,0.00,,,0.00,,2013-02-01 17:02:00,
2013-02-01 11:12:00,-7.0,-14.0,30.35,WSW,242,6.0,9.0,71,0.00,,,0.00,,2013-02-01 17:12:00,
2013-02-01 11:22:00,-7.0,-14.0,30.35,WSW,242,6.0,9.0,71,0.00,,,0.00,,2013-02-01 17:22:00,
2013-02-01 11:32:00,-6.0,-13.0,30.35,SW,233,6.0,10.0,70,0.00,,,0.00,,2013-02-01 17:32:00,
2013-02-01 11:42:00,-6.0,-13.0,30.35,SW,233,6.0,10.0,70,0.00,,,0.00,,2013-02-01 17:42:00,
2013-02-01 11:53:00,-6.0,-13.0,30.35,SW,233,6.0,10.0,70,0.00,,,0.00,,2013-02-01 17:53:00,
2013-02-01 12:03:00,-5.0,-13.0,30.34,SW,219,5.0,9.0,69,0.00,,,0.00,,2013-02-01 18:03:00,
2013-02-01 12:12:00,-5.0,-13.0,30.34,SW,219,5.0,9.0,69,0.00,,,0.00,,2013-02-01 18:12:00,
2013-02-01 12:22:00,-5.0,-13.0,30.34,SW,219,5.0,9.0,69,0.00,,,0.00,,2013-02-01 18:22:00,
2013-02-01 12:32:00,-3.0,-10.0,30.33,WSW,244,5.0,11.0,70,0.00,,,0.00,,2013-02-01 18:32:00,
2013-02-01 12:42:00,-3.0,-10.0,30.33,WSW,244,5.0,11.0,70,0.00,,,0.00,,2013-02-01 18:42:00,
2013-02-01 12:53:00,-3.0,-10.0,30.31,WSW,246,6.0,10.0,70,0.00,,,0.00,,2013-02-01 18:53:00,
2013-02-01 13:02:00,-2.0,-10.0,30.30,SW,232,9.0,11.0,69,0.00,,,0.00,,2013-02-01 19:02:00,
2013-02-01 13:11:00,-2.0,-10.0,30.30,SW,232,9.0,11.0,69,0.00,,,0.00,,2013-02-01 19:11:00,
2013-02-01 13:21:00,-2.0,-10.0,30.30,SW,232,9.0,11.0,69,0.00,,,0.00,,2013-02-01 19:21:00,
2013-02-01 13:32:00,-1.0,-8.0,30.29,SW,220,7.0,12.0,70,0.00,,,0.00,,2013-02-01 19:32:00,
2013-02-01 13:41:00,-1.0,-8.0,30.29,SW,220,7.0,12.0,70,0.00,,,0.00,,2013-02-01 19:41:00,
2013-02-01 13:52:00,0.0,-8.0,30.29,WSW,240,9.0,11.0,69,0.00,,,0.00,,2013-02-01 19:52:00,
2013-02-01 14:02:00,0.0,-8.0,30.26,SSW,208,9.0,13.0,68,0.00,,,0.00,,2013-02-01 20:02:00,
2013-02-01 14:11:00,0.0,-8.0,30.26,SSW,208,9.0,13.0,68,0.00,,,0.00,,2013-02-01 20:11:00,
2013-02-01 14:21:00,1.0,-8.0,30.24,SW,218,3.0,9.0,64,0.00,,,0.00,,2013-02-01 20:21:00,
2013-02-01 14:32:00,1.0,-8.0,30.24,SW,218,3.0,9.0,64,0.00,,,0.00,,2013-02-01 20:32:00,
2013-02-01 14:42:00,1.0,-8.0,30.24,SW,218,3.0,9.0,64,0.00,,,0.00,,2013-02-01 20:42:00,
2013-02-01 14:52:00,1.0,-8.0,30.24,SE,139,5.0,9.0,64,0.00,,,0.00,,2013-02-01 20:52:00,
2013-02-01 15:02:00,2.0,-7.0,30.24,SSW,208,5.0,8.0,66,0.00,,,0.00,,2013-02-01 21:02:00,
2013-02-01 15:12:00,2.0,-7.0,30.24,SSW,208,5.0,8.0,66,0.00,,,0.00,,2013-02-01 21:12:00,
2013-02-01 15:21:00,3.0,-6.0,30.22,SSW,194,5.0,8.0,66,0.00,,,0.00,,2013-02-01 21:21:00,
2013-02-01 15:32:00,3.0,-6.0,30.21,SSW,204,3.0,5.0,66,0.00,,,0.00,,2013-02-01 21:32:00,
2013-02-01 15:42:00,3.0,-6.0,30.21,SSW,204,3.0,5.0,66,0.00,,,0.00,,2013-02-01 21:42:00,
2013-02-01 15:52:00,4.0,-5.0,30.20,South,184,2.0,5.0,66,0.00,,,0.00,,2013-02-01 21:52:00,
2013-02-01 16:02:00,4.0,-5.0,30.20,South,184,2.0,5.0,66,0.00,,,0.00,,2013-02-01 22:02:00,
2013-02-01 16:11:00,4.0,-5.0,30.20,South,184,2.0,5.0,66,0.00,,,0.00,,2013-02-01 22:11:00,
2013-02-01 16:21:00,4.0,-5.0,30.20,South,184,2.0,5.0,66,0.00,,,0.00,,2013-02-01 22:21:00,
2013-02-01 16:32:00,5.0,-4.0,30.19,South,181,2.0,9.0,67,0.00,,,0.00,,2013-02-01 22:32:00,
2013-02-01 16:42:00,5.0,-4.0,30.19,South,181,2.0,9.0,67,0.00,,,0.00,,2013-02-01 22:42:00,
2013-02-01 16:52:00,5.0,-4.0,30.18,SE,138,2.0,7.0,67,0.00,,,0.00,,2013-02-01 22:52:00,
2013-02-01 17:01:00,5.0,-3.0,30.17,ESE,110,3.0,6.0,70,0.00,,,0.00,,2013-02-01 23:01:00,
2013-02-01 17:11:00,5.0,-3.0,30.17,ESE,110,3.0,6.0,70,0.00,,,0.00,,2013-02-01 23:11:00,
2013-02-01 17:21:00,5.0,-3.0,30.17,ESE,110,3.0,6.0,70,0.00,,,0.00,,2013-02-01 23:21:00,
2013-02-01 17:31:00,6.0,-1.0,30.17,SE,127,4.0,6.0,71,0.00,,,0.00,,2013-02-01 23:31:00,
2013-02-01 17:41:00,6.0,-1.0,30.17,SE,127,4.0,6.0,71,0.00,,,0.00,,2013-02-01 23:41:00,
2013-02-01 17:52:00,6.0,-1.0,30.17,ESE,119,3.0,6.0,73,0.00,,,0.00,,2013-02-01 23:52:00,
2013-02-01 18:02:00,6.0,0.0,30.17,ESE,117,2.0,4.0,77,0.00,,,0.00,,2013-02-02 00:02:00,
2013-02-01 18:11:00,6.0,0.0,30.17,ESE,117,2.0,4.0,77,0.00,,,0.00,,2013-02-02 00:11:00,
2013-02-01 18:21:00,6.0,1.0,30.16,ESE,112,3.0,6.0,80,0.00,,,0.00,,2013-02-02 00:21:00,
2013-02-01 18:32:00,6.0,1.0,30.16,ESE,112,3.0,6.0,80,0.00,,,0.00,,2013-02-02 00:32:00,
2013-02-01 18:42:00,6.0,1.0,30.16,ESE,112,3.0,6.0,80,0.00,,,0.00,,2013-02-02 00:42:00,
2013-02-01 18:52:00,6.0,2.0,30.16,East,100,3.0,5.0,83,0.00,,,0.00,,2013-02-02 00:52:00,
2013-02-01 19:02:00,6.0,2.0,30.16,East,96,2.0,5.0,84,0.00,,,0.00,,2013-02-02 01:02:00,
2013-02-01 19:11:00,6.0,2.0,30.16,East,96,2.0,5.0,84,0.00,,,0.00,,2013-02-02 01:11:00,
2013-02-01 19:21:00,7.0,4.0,30.15,East,95,3.0,7.0,86,0.00,,,0.00,,2013-02-02 01:21:00,
2013-02-01 19:32:00,7.0,3.0,30.14,SE,139,6.0,10.0,85,0.00,,,0.00,,2013-02-02 01:32:00,
2013-02-01 19:41:00,7.0,3.0,30.14,SE,139,6.0,10.0,85,0.00,,,0.00,,2013-02-02 01:41:00,
2013-02-01 19:52:00,7.0,3.0,30.14,SE,139,6.0,10.0,85,0.00,,,0.00,,2013-02-02 01:52:00,
2013-02-01 20:01:00,7.0,3.0,30.13,East,95,5.0,8.0,85,0.00,,,0.00,,2013-02-02 02:01:00,
2013-02-01 20:11:00,7.0,3.0,30.13,East,95,5.0,8.0,85,0.00,,,0.00,,2013-02-02 02:11:00,
2013-02-01 20:21:00,7.0,3.0,30.13,ESE,117,4.0,7.0,85,0.00,,,0.00,,2013-02-02 02:21:00,
2013-02-01 20:32:00,7.0,3.0,30.12,East,100,5.0,7.0,85,0.00,,,0.00,,2013-02-02 02:32:00,
2013-02-01 20:42:00,7.0,3.0,30.12,East,100,5.0,7.0,85,0.00,,,0.00,,2013-02-02 02:42:00,
2013-02-01 20:52:00,7.0,4.0,30.12,East,90,4.0,7.0,86,0.00,,,0.00,,2013-02-02 02:52:00,
2013-02-01 21:02:00,7.0,4.0,30.12,East,90,4.0,7.0,86,0.00,,,0.00,,2013-02-02 03:02:00,
2013-02-01 21:11:00,7.0,4.0,30.12,East,90,4.0,7.0,86,0.00,,,0.00,,2013-02-02 03:11:00,
2013-02-01 21:22:00,8.0,5.0,30.12,East,80,5.0,6.0,86,0.00,,,0.00,,2013-02-02 03:22:00,
2013-02-01 21:32:00,8.0,5.0,30.12,ENE,68,3.0,5.0,86,0.00,,,0.00,,2013-02-02 03:32:00,
2013-02-01 21:42:00,8.0,5.0,30.11,NE,56,3.0,4.0,87,0.00,,,0.00,,2013-02-02 03:42:00,
2013-02-01 21:52:00,8.0,5.0,30.11,NE,56,3.0,4.0,87,0.00,,,0.00,,2013-02-02 03:52:00,
2013-02-01 22:02:00,8.0,5.0,30.11,ESE,108,3.0,5.0,87,0.00,,,0.00,,2013-02-02 04:02:00,
2013-02-01 22:11:00,8.0,5.0,30.11,ESE,108,3.0,5.0,87,0.00,,,0.00,,2013-02-02 04:11:00,
2013-02-01 22:21:00,8.0,5.0,30.11,ENE,64,4.0,5.0,88,0.00,,,0.00,,2013-02-02 04:21:00,
2013-02-01 22:32:00,8.0,5.0,30.11,ENE,64,4.0,5.0,88,0.00,,,0.00,,2013-02-02 04:32:00,
2013-02-01 22:42:00,8.0,5.0,30.11,ENE,64,4.0,5.0,88,0.00,,,0.00,,2013-02-02 04:42:00,
2013-02-01 22:52:00,8.0,5.0,30.11,ENE,70,3.0,5.0,88,0.00,,,0.00,,2013-02-02 04:52:00,
2013-02-01 23:03:00,7.0,4.0,30.10,ENE,64,3.0,5.0,88,0.00,,,0.00,,2013-02-02 05:03:00,
2013-02-01 23:12:00,7.0,4.0,30.10,ENE,64,3.0,5.0,88,0.00,,,0.00,,2013-02-02 05:12:00,
2013-02-01 23:22:00,7.0,4.0,30.11,ENE,60,4.0,5.0,88,0.00,,,0.00,,2013-02-02 05:22:00,
2013-02-01 23:33:00,7.0,4.0,30.11,ENE,65,4.0,6.0,88,0.00,,,0.00,,2013-02-02 05:33:00,
2013-02-01 23:41:00,7.0,4.0,30.11,ENE,65,4.0,6.0,88,0.00,,,0.00,,2013-02-02 05:41:00,
2013-02-01 23:52:00,7.0,4.0,30.11,ENE,65,4.0,6.0,88,0.00,,,0.00,,2013-02-02 05:52:00,